Spokane Fairchild, WA
on Sunday, November 18, 2012

Sunday
Previous Day Next Day
Daily Summary
 ActualAverage (KGEG)Record (KGEG)
Temperature
Mean Temperature °F / °C 35°F / 2°C  
Max Temperature 44°F / 7°C 40°F / 4°C 65°F / 18°C (1897)
Min Temperature 32°F / 0°C 29°F / -2°C 3°F / -16°C (1881)
Degree Days
Heating Degree Days 27 30  
Month to date heating degree days 486  
Since 1 July heating degree days 1274  
Cooling Degree Days 0 0  
Month to date cooling degree days 0  
Year to date cooling degree days 450  
Moisture
Dew Point 37°F / 3°C   
Average Humidity 98    
Maximum Humidity 100    
Minimum Humidity 83    
Precipitation
Precipitation 0.00 in / 0.00 cm 0.08 in / 2.03 cm 0.93 in / 2.36 cm (1955)
Month to date precipitation 1.31  
Year to date precipitation 13.27  
Snow
Snow 0.00 in / 0.00 cm 0.30 in / 0.76 cm 5.30 in / 13.46 cm (1955)
Month to date snowfall 3.1  
Since 1 July snowfall 3.2  
Since 1 September snowfall 3.2  
Snow Depth in / cm   
Wind
Wind Speed 14 mph / 23 km/h   
Max Wind Speed 21 mph / 34 km/h   
Max Gust Speed 29 mph / 47 km/h   
Visibility 10 miles / 16 kilometers   
Events Rain , Snow   

Key: T is trace of precipitation, MM is missing value
Source: NWS Daily Summary
Time(PST)TemperatureDew PointHumidity Pressure Visibility Wind DirectionWind SpeedGust SpeedPrecipitationEvents Conditions
12:38 AM 37.4°F / 3.0°C 37.4°F / 3.0°C 100% 29.73 in / 1006.8 hPa 10.0 miles / 16.1 kilometers SSW 18.4 mph / 29.6 km/h 24.2 mph / 38.9 km/h N/A Snow Light Snow
12:55 AM 37.0°F / 2.8°C 37.0°F / 2.8°C 100% 29.74 in / 1006.9 hPa 10.0 miles / 16.1 kilometers SSW 18.4 mph / 29.6 km/h 26.5 mph / 42.6 km/h 0.00 in / 0.0 cm Snow Light Snow
1:39 AM 37.4°F / 3.0°C 37.4°F / 3.0°C 100% 29.75 in / 1007.4 hPa 10.0 miles / 16.1 kilometers SSW 17.3 mph / 27.8 km/h 28.8 mph / 46.3 km/h N/A Snow Light Snow
1:45 AM 37.4°F / 3.0°C 37.4°F / 3.0°C 100% 29.72 in / 1006.3 hPa 10.0 miles / 16.1 kilometers SSW 20.7 mph / 33.3 km/h 26.5 mph / 42.6 km/h N/A Snow Light Snow
1:55 AM 37.0°F / 2.8°C 37.0°F / 2.8°C 100% 29.76 in / 1007.8 hPa 10.0 miles / 16.1 kilometers SSW 18.4 mph / 29.6 km/h - 0.00 in / 0.0 cm Snow Light Snow
2:21 AM 37.4°F / 3.0°C 37.4°F / 3.0°C 100% 29.74 in / 1007.0 hPa 10.0 miles / 16.1 kilometers SSW 18.4 mph / 29.6 km/h 23.0 mph / 37.0 km/h N/A Snow Light Snow
2:46 AM 35.6°F / 2.0°C 35.6°F / 2.0°C 100% 29.76 in / 1007.7 hPa 10.0 miles / 16.1 kilometers SSW 16.1 mph / 25.9 km/h 25.3 mph / 40.7 km/h N/A   Mostly Cloudy
2:51 AM 35.6°F / 2.0°C 35.6°F / 2.0°C 100% 29.76 in / 1007.7 hPa 10.0 miles / 16.1 kilometers SSW 15.0 mph / 24.1 km/h - N/A   Mostly Cloudy
2:55 AM 36.0°F / 2.2°C 36.0°F / 2.2°C 100% 29.81 in / 1009.2 hPa 10.0 miles / 16.1 kilometers SSW 16.1 mph / 25.9 km/h - 0.00 in / 0.0 cm   Mostly Cloudy
3:23 AM 35.6°F / 2.0°C 35.6°F / 2.0°C 100% 29.77 in / 1008.0 hPa 10.0 miles / 16.1 kilometers SSW 17.3 mph / 27.8 km/h 24.2 mph / 38.9 km/h N/A   Mostly Cloudy
3:24 AM 35.6°F / 2.0°C 35.6°F / 2.0°C 100% 29.77 in / 1008.0 hPa 10.0 miles / 16.1 kilometers South 16.1 mph / 25.9 km/h 24.2 mph / 38.9 km/h N/A   Mostly Cloudy
3:27 AM 35.6°F / 2.0°C 35.6°F / 2.0°C 100% 29.77 in / 1008.0 hPa 10.0 miles / 16.1 kilometers SSW 15.0 mph / 24.1 km/h 24.2 mph / 38.9 km/h N/A   Mostly Cloudy
3:32 AM 35.6°F / 2.0°C 35.6°F / 2.0°C 100% 29.77 in / 1008.0 hPa 10.0 miles / 16.1 kilometers South 12.7 mph / 20.4 km/h - N/A   Scattered Clouds
3:36 AM 35.6°F / 2.0°C 35.6°F / 2.0°C 100% 29.78 in / 1008.4 hPa 10.0 miles / 16.1 kilometers South 15.0 mph / 24.1 km/h - N/A   Scattered Clouds
3:45 AM 35.6°F / 2.0°C 35.6°F / 2.0°C 100% 29.78 in / 1008.4 hPa 10.0 miles / 16.1 kilometers South 11.5 mph / 18.5 km/h - N/A   Partly Cloudy
3:54 AM 35.6°F / 2.0°C 35.6°F / 2.0°C 100% 29.79 in / 1008.7 hPa 10.0 miles / 16.1 kilometers South 13.8 mph / 22.2 km/h - N/A   Partly Cloudy
3:58 AM 35.6°F / 2.0°C 35.6°F / 2.0°C 100% 29.79 in / 1008.7 hPa 10.0 miles / 16.1 kilometers South 11.5 mph / 18.5 km/h - 0.00 in / 0.0 cm   Partly Cloudy
4:04 AM 33.8°F / 1.0°C 33.8°F / 1.0°C 100% 29.80 in / 1009.0 hPa 10.0 miles / 16.1 kilometers South 16.1 mph / 25.9 km/h 19.6 mph / 31.5 km/h N/A   Scattered Clouds
4:05 AM 33.8°F / 1.0°C 33.8°F / 1.0°C 100% 29.80 in / 1009.0 hPa 10.0 miles / 16.1 kilometers South 12.7 mph / 20.4 km/h 19.6 mph / 31.5 km/h N/A   Partly Cloudy
4:40 AM 33.8°F / 1.0°C 33.8°F / 1.0°C 100% 29.82 in / 1009.7 hPa 10.0 miles / 16.1 kilometers South 11.5 mph / 18.5 km/h - N/A   Mostly Cloudy
4:50 AM 32.0°F / 0.0°C 32.0°F / 0.0°C 100% 29.83 in / 1010.0 hPa 10.0 miles / 16.1 kilometers South 12.7 mph / 20.4 km/h - N/A   Scattered Clouds
4:55 AM 32.0°F / 0.0°C 32.0°F / 0.0°C 100% 29.83 in / 1010.0 hPa 10.0 miles / 16.1 kilometers South 12.7 mph / 20.4 km/h - N/A   Mostly Cloudy
4:58 AM 33.6°F / 0.9°C 33.6°F / 0.9°C 100% 29.83 in / 1010.0 hPa 10.0 miles / 16.1 kilometers South 11.5 mph / 18.5 km/h - 0.00 in / 0.0 cm   Mostly Cloudy
5:08 AM 32.0°F / 0.0°C 32.0°F / 0.0°C 100% 29.82 in / 1009.7 hPa 10.0 miles / 16.1 kilometers SSW 11.5 mph / 18.5 km/h - N/A   Scattered Clouds
5:58 AM 33.1°F / 0.6°C 33.1°F / 0.6°C 100% 29.84 in / 1010.4 hPa 10.0 miles / 16.1 kilometers South 11.5 mph / 18.5 km/h - N/A   Clear
6:00 AM 32.0°F / 0.0°C 32.0°F / 0.0°C 100% 29.84 in / 1010.4 hPa 10.0 miles / 16.1 kilometers South 12.7 mph / 20.4 km/h - N/A   Clear
6:21 AM 33.8°F / 1.0°C 33.8°F / 1.0°C 100% 29.84 in / 1010.4 hPa 10.0 miles / 16.1 kilometers South 11.5 mph / 18.5 km/h - N/A   Clear
6:58 AM 33.8°F / 1.0°C 33.8°F / 1.0°C 100% 29.84 in / 1010.4 hPa 10.0 miles / 16.1 kilometers South 12.7 mph / 20.4 km/h - 0.00 in / 0.0 cm   Clear
7:57 AM 33.8°F / 1.0°C 33.8°F / 1.0°C 100% 29.85 in / 1010.7 hPa 10.0 miles / 16.1 kilometers South 8.1 mph / 13.0 km/h - N/A   Clear
7:58 AM 34.0°F / 1.1°C 34.0°F / 1.1°C 100% 29.85 in / 1010.7 hPa 10.0 miles / 16.1 kilometers South 8.1 mph / 13.0 km/h - N/A   Clear
8:16 AM 35.6°F / 2.0°C 35.6°F / 2.0°C 100% 29.86 in / 1011.1 hPa 10.0 miles / 16.1 kilometers South 8.1 mph / 13.0 km/h - N/A   Partly Cloudy
8:57 AM 37.4°F / 3.0°C 37.4°F / 3.0°C 100% 29.86 in / 1011.1 hPa 10.0 miles / 16.1 kilometers South 10.4 mph / 16.7 km/h - N/A   Clear
8:58 AM 36.9°F / 2.7°C 36.9°F / 2.7°C 100% 29.91 in / 1012.6 hPa 10.0 miles / 16.1 kilometers South 10.4 mph / 16.7 km/h - 0.00 in / 0.0 cm   Clear
9:13 AM 37.4°F / 3.0°C 37.4°F / 3.0°C 100% 29.87 in / 1011.4 hPa 10.0 miles / 16.1 kilometers South 13.8 mph / 22.2 km/h - N/A   Scattered Clouds
9:58 AM 37.8°F / 3.2°C 37.8°F / 3.2°C 100% 29.93 in / 1013.5 hPa 10.0 miles / 16.1 kilometers South 12.7 mph / 20.4 km/h - 0.00 in / 0.0 cm   Scattered Clouds
10:58 AM 39.9°F / 4.4°C 39.9°F / 4.4°C 100% 29.94 in / 1013.8 hPa 10.0 miles / 16.1 kilometers South 10.4 mph / 16.7 km/h - N/A   Mostly Cloudy
11:55 AM 41.0°F / 5.0°C 41.0°F / 5.0°C 100% 29.87 in / 1011.4 hPa 10.0 miles / 16.1 kilometers South 11.5 mph / 18.5 km/h 18.4 mph / 29.6 km/h N/A   Clear
12:58 PM 42.1°F / 5.6°C 41.5°F / 5.3°C 98% 29.87 in / 1011.4 hPa 10.0 miles / 16.1 kilometers SSE 9.2 mph / 14.8 km/h - N/A   Partly Cloudy
1:58 PM 44.2°F / 6.8°C 39.4°F / 4.1°C 83% 29.86 in / 1011.1 hPa 10.0 miles / 16.1 kilometers SSE 10.4 mph / 16.7 km/h - N/A   Clear
2:58 PM 43.0°F / 6.1°C 40.1°F / 4.5°C 90% 29.86 in / 1011.1 hPa 10.0 miles / 16.1 kilometers SSE 9.2 mph / 14.8 km/h - N/A   Overcast
3:58 PM 41.9°F / 5.5°C 40.8°F / 4.9°C 96% 29.91 in / 1012.8 hPa 10.0 miles / 16.1 kilometers SSE 8.1 mph / 13.0 km/h - N/A   Mostly Cloudy
4:58 PM 41.5°F / 5.3°C 40.1°F / 4.5°C 95% 29.92 in / 1013.0 hPa 10.0 miles / 16.1 kilometers SE 9.2 mph / 14.8 km/h - N/A   Overcast
5:58 PM 39.9°F / 4.4°C 39.9°F / 4.4°C 100% 29.92 in / 1013.2 hPa 10.0 miles / 16.1 kilometers SE 10.4 mph / 16.7 km/h - N/A   Mostly Cloudy
6:47 PM 39.2°F / 4.0°C 39.2°F / 4.0°C 100% 29.84 in / 1010.4 hPa 10.0 miles / 16.1 kilometers SSE 8.1 mph / 13.0 km/h - N/A   Partly Cloudy
6:55 PM 39.2°F / 4.0°C 39.2°F / 4.0°C 100% 29.84 in / 1010.4 hPa 10.0 miles / 16.1 kilometers SE 8.1 mph / 13.0 km/h - N/A   Clear
7:58 PM 39.0°F / 3.9°C 39.0°F / 3.9°C 100% 29.86 in / 1011.2 hPa 10.0 miles / 16.1 kilometers SSE 11.5 mph / 18.5 km/h - N/A   Clear
8:21 PM 39.2°F / 4.0°C 39.2°F / 4.0°C 100% 29.81 in / 1009.4 hPa 10.0 miles / 16.1 kilometers SSE 11.5 mph / 18.5 km/h - N/A   Clear
8:33 PM 39.2°F / 4.0°C 39.2°F / 4.0°C 100% 29.82 in / 1009.7 hPa 10.0 miles / 16.1 kilometers SSE 11.5 mph / 18.5 km/h - N/A   Clear
8:40 PM 39.2°F / 4.0°C 39.2°F / 4.0°C 100% 29.81 in / 1009.4 hPa 10.0 miles / 16.1 kilometers SSE 12.7 mph / 20.4 km/h - N/A   Clear
8:58 PM 40.3°F / 4.6°C 39.2°F / 4.0°C 96% 29.87 in / 1011.4 hPa 10.0 miles / 16.1 kilometers SSE 13.8 mph / 22.2 km/h - 0.00 in / 0.0 cm   Scattered Clouds
8:59 PM 41.0°F / 5.0°C 39.2°F / 4.0°C 93% 29.82 in / 1009.7 hPa 10.0 miles / 16.1 kilometers SSE 13.8 mph / 22.2 km/h - N/A   Scattered Clouds
9:13 PM 41.0°F / 5.0°C 39.2°F / 4.0°C 93% 29.82 in / 1009.7 hPa 10.0 miles / 16.1 kilometers SSE 12.7 mph / 20.4 km/h - N/A   Mostly Cloudy
9:22 PM 41.0°F / 5.0°C 39.2°F / 4.0°C 93% 29.81 in / 1009.4 hPa 10.0 miles / 16.1 kilometers SSE 15.0 mph / 24.1 km/h - N/A   Mostly Cloudy
9:31 PM 41.0°F / 5.0°C 39.2°F / 4.0°C 93% 29.81 in / 1009.4 hPa 10.0 miles / 16.1 kilometers SSE 15.0 mph / 24.1 km/h - N/A   Scattered Clouds
9:45 PM 41.0°F / 5.0°C 39.2°F / 4.0°C 93% 29.82 in / 1009.7 hPa 10.0 miles / 16.1 kilometers SSE 13.8 mph / 22.2 km/h - N/A   Partly Cloudy
9:58 PM 40.1°F / 4.5°C 38.7°F / 3.7°C 95% 29.87 in / 1011.4 hPa 10.0 miles / 16.1 kilometers SSE 12.7 mph / 20.4 km/h - 0.00 in / 0.0 cm   Clear
10:28 PM 41.0°F / 5.0°C 39.2°F / 4.0°C 93% 29.83 in / 1010.0 hPa 10.0 miles / 16.1 kilometers SSE 15.0 mph / 24.1 km/h - N/A Rain Light Rain
10:58 PM 40.3°F / 4.6°C 39.4°F / 4.1°C 97% 29.86 in / 1011.2 hPa 10.0 miles / 16.1 kilometers South 15.0 mph / 24.1 km/h 26.5 mph / 42.6 km/h 0.00 in / 0.0 cm Rain Light Rain
11:08 PM 41.0°F / 5.0°C 39.2°F / 4.0°C 93% 29.83 in / 1010.0 hPa 10.0 miles / 16.1 kilometers South 12.7 mph / 20.4 km/h - N/A   Mostly Cloudy
11:15 PM 41.0°F / 5.0°C 41.0°F / 5.0°C 100% 29.83 in / 1010.0 hPa 10.0 miles / 16.1 kilometers South 11.5 mph / 18.5 km/h - N/A Rain Light Rain
11:35 PM 39.2°F / 4.0°C 39.2°F / 4.0°C 100% 29.83 in / 1010.0 hPa 10.0 miles / 16.1 kilometers South 12.7 mph / 20.4 km/h - N/A Rain Light Rain
11:40 PM 39.2°F / 4.0°C 39.2°F / 4.0°C 100% 29.83 in / 1010.0 hPa 10.0 miles / 16.1 kilometers South 12.7 mph / 20.4 km/h - N/A Rain Light Rain
11:45 PM 39.2°F / 4.0°C 39.2°F / 4.0°C 100% 29.83 in / 1010.0 hPa 10.0 miles / 16.1 kilometers South 16.1 mph / 25.9 km/h - N/A Rain Light Rain
11:58 PM 39.2°F / 4.0°C 39.2°F / 4.0°C 100% 29.86 in / 1010.9 hPa 10.0 miles / 16.1 kilometers SSE 12.7 mph / 20.4 km/h 23.0 mph / 37.0 km/h 0.00 in / 0.0 cm Rain Light Rain
Moon Phase
Nov. 18 Nov. 20 Nov. 28 Dec. 06 Dec. 13
Sunrise:07:01 AM (PST) Moon Rise:11:26 AM (PST)11/18
Sunset:04:10 PM (PST) Moon Set:09:42 PM (PST)11/18

Copyright © 2014 The Weather Underground, Inc.